Location: Gleizolles
(44.4833°N, 6.7667°E)
Time: 02:13:04
(UTC+00:00)

Explorer 11/Cluster Stage 4 - Visible Passes

Search period start: 13 June 2024 00:00
Search period end: 23 June 2024 00:00
Orbit: 465 x 1217 km, 28.8° (Epoch: 12 June)

Date Brightness Start Highest point End Pass type
(mag) Time Alt. Az. Time Alt. Az. Time Alt. Az.
18 Jun 8.9 21:33:26 10° SSW 21:35:09 14° SSW 21:35:09 14° SSW visible
19 Jun 8.5 21:15:06 10° SSW 21:19:33 18° S 21:19:33 18° S visible
20 Jun 8.4 20:56:49 10° SSW 21:02:00 19° S 21:03:36 18° SSE visible
20 Jun 9.0 22:44:18 10° SW 22:45:19 13° SW 22:45:19 13° SW visible
21 Jun 8.5 20:38:35 10° SW 20:44:03 21° S 20:47:21 15° SE visible
21 Jun 8.7 22:26:09 10° SW 22:29:03 18° SSW 22:29:03 18° SSW visible
22 Jun 8.5 20:20:24 10° SW 20:26:05 22° S 20:30:51 12° SE visible
22 Jun 8.5 22:08:01 10° SW 22:12:32 22° SSW 22:12:32 22° SSW visible
